Regional Weather Roundup
Issued by NWS

Home | Current Version | Previous Version | Graphics & Text | Print | Product List | Glossary On
Versions: 1 2 3 4 5 6 7 8 9 10 11 12 13 14 15 16 17 18 19 20 21 22 23 24 25 26 27 28 29 30 31 32 33 34 35 36 37 38 39 40 41 42 43 44 45 46 47 48 49 50
000
ASUS43 KLMK 042102
RWRKY
KENTUCKY REGIONAL WEATHER ROUNDUP
NATIONAL WEATHER SERVICE LOUISVILLE KY
500 PM EDT SAT JUL 04 2015

NOTE "FAIR" INDICATES FEW OR NO CLOUDS BELOW 12,000 FEET
WITH NO SIGNIFICANT WEATHER AND/OR OBSTRUCTIONS TO VISIBILITY.

KYZ001>023-026-027-061>063-070>075-042200-
WESTERN AND SOUTH CENTRAL KENTUCKY

CITY           SKY/WX    TMP DP  RH WIND       PRES   REMARKS
PADUCAH        CLOUDY    81  67  62 NE7       29.96F
HENDERSON      PTSUNNY   82  64  54 N5        29.95F
OWENSBORO      CLOUDY    82  66  58 NE6       29.97F
HOPKINSVILLE   CLOUDY    80  69  69 N5        29.96F
BOWLING GREEN  PTSUNNY   81  68  64 N5        29.97F
GLASGOW        NOT AVBL
$$

KYZ024-025-028>034-038-045-046-053-042200-
NORTH CENTRAL KENTUCKY

CITY           SKY/WX    TMP DP  RH WIND       PRES   REMARKS
LOUISVILLE/SDF PTSUNNY   83  64  52 CALM      29.97F
LOUISVILLE/LOU PTSUNNY   83  64  52 VRB6      29.98F
FORT KNOX      PTSUNNY   80  67  64 VRB1      29.97F
$$

KYZ035>037-039>044-047>052-055>060-089>105-042200-
NORTHEAST KENTUCKY

CITY           SKY/WX    TMP DP  RH WIND       PRES   REMARKS
LEXINGTON      PTSUNNY   81  67  62 NW6       30.00F
COVINGTON      PTSUNNY   79  62  56 N6        30.00F
FRANKFORT      PTSUNNY   81  64  56 VRB5      29.98F
$$

KYZ054-064>069-076>088-106>120-042200-
SOUTHEAST KENTUCKY

CITY           SKY/WX    TMP DP  RH WIND       PRES   REMARKS
JACKSON        CLOUDY    76  66  71 VRB3      30.02F
LONDON         CLOUDY    80  65  59 W6        30.01F
SOMERSET       NOT AVBL
MIDDLESBORO    NOT AVBL
MONTICELLO     CLOUDY    81  69  66 CALM      30.03S
$$



USA.gov is the U.S. government's official web portal to all federal, state and local government web resources and services.